TimePDT,TemperatureF,Dew PointF,Humidity,Sea Level PressureIn,VisibilityMPH,Wind Direction,Wind SpeedMPH,Gust SpeedMPH,PrecipitationIn,Events,Conditions,WindDirDegrees,DateUTC
12:52 AM,64.0,51.1,63,29.85,10.0,SSW,8.1,-,N/A,,Overcast,200,2013-06-26 07:52:00
1:52 AM,61.0,52.0,72,29.86,10.0,South,6.9,-,N/A,,Scattered Clouds,180,2013-06-26 08:52:00
2:52 AM,61.0,51.1,70,29.88,10.0,SSW,8.1,-,N/A,,Clear,200,2013-06-26 09:52:00
3:52 AM,59.0,51.1,75,29.89,10.0,South,5.8,-,N/A,,Clear,170,2013-06-26 10:52:00
4:52 AM,57.9,51.1,78,29.91,10.0,SE,4.6,-,N/A,,Clear,130,2013-06-26 11:52:00
5:52 AM,57.9,51.1,78,29.92,10.0,SSE,6.9,-,N/A,,Clear,160,2013-06-26 12:52:00
6:52 AM,57.9,53.1,84,29.93,10.0,SSE,6.9,-,N/A,,Clear,160,2013-06-26 13:52:00
7:52 AM,61.0,53.1,75,29.94,10.0,SSE,5.8,-,N/A,,Clear,160,2013-06-26 14:52:00
8:52 AM,63.0,53.1,70,29.96,10.0,ESE,5.8,-,N/A,,Mostly Cloudy,120,2013-06-26 15:52:00
9:52 AM,64.9,53.1,65,29.98,10.0,Variable,3.5,-,N/A,,Overcast,0,2013-06-26 16:52:00
10:52 AM,66.9,51.1,57,29.98,10.0,Calm,Calm,-,N/A,,Partly Cloudy,0,2013-06-26 17:52:00
11:52 AM,70.0,50.0,49,29.98,10.0,SSE,6.9,-,N/A,,Partly Cloudy,150,2013-06-26 18:52:00
12:52 PM,71.1,51.1,49,29.99,10.0,Variable,6.9,-,N/A,,Clear,0,2013-06-26 19:52:00
1:52 PM,71.1,52.0,51,29.99,10.0,Variable,3.5,-,N/A,,Clear,0,2013-06-26 20:52:00
2:52 PM,73.0,51.1,46,29.99,10.0,SW,6.9,-,N/A,,Clear,220,2013-06-26 21:52:00
3:52 PM,73.0,50.0,44,29.99,10.0,SSE,8.1,-,N/A,,Scattered Clouds,160,2013-06-26 22:52:00
4:52 PM,73.9,48.9,41,29.99,10.0,South,8.1,-,N/A,,Mostly Cloudy,190,2013-06-26 23:52:00
5:52 PM,73.9,51.1,45,29.99,10.0,South,9.2,-,N/A,,Scattered Clouds,190,2013-06-27 00:52:00
6:52 PM,75.0,52.0,44,29.99,10.0,South,6.9,-,N/A,,Clear,190,2013-06-27 01:52:00
7:52 PM,72.0,55.9,57,30.01,10.0,South,13.8,-,N/A,,Clear,180,2013-06-27 02:52:00
8:52 PM,69.1,57.0,65,30.03,10.0,South,11.5,-,N/A,,Clear,180,2013-06-27 03:52:00
9:52 PM,64.9,57.0,75,30.05,10.0,SE,5.8,-,N/A,,Clear,130,2013-06-27 04:52:00
10:52 PM,63.0,57.0,81,30.06,10.0,SE,6.9,-,N/A,,Clear,130,2013-06-27 05:52:00
11:52 PM,60.1,57.0,90,30.06,10.0,SSE,4.6,-,N/A,,Clear,160,2013-06-27 06:52:00